Flag for China Weather past 2 weeks in Nanjing, Jiangsu, China

Now
77 °F

Fog.


Feels Like: 78 °F
Forecast: 73 / 79 °F
Wind: 1 mph from North

Location: Nanjing

Current Time: Aug 24, 2014 at 2:24:27 AM

Latest Report: Aug 24, 2014 at 2:00 AM


Visibility: 2 mi

Pressure: 29.68 "Hg

Humidity: 94%

Dew point: 75 °F

Location of NanjingLocation

Historic Weather in Nanjing — Graph

°F

Nanjing temperature yesterday

Maximum temperature yesterday: 91 °F (at 12:00 PM)
Minimum temperature yesterday: 77 °F (at 1:00 AM)
Average temperature yesterday: 83 °F

Past Weeks' High & Low Weather Summary

 TemperatureHumidityPressure
High91 °F (Aug 22, 1:00 PM)100% (Aug 9, 4:00 AM)29.89 "Hg (Aug 9, 4:00 AM)
Low66 °F (Aug 17, 7:00 AM)55% (Aug 21, 2:00 PM)29.62 "Hg (Aug 9, 3:00 AM)
Average76 °F87%29.76 "Hg
* Reported Aug 9 1:00 AM — Aug 24 1:00 AM, Nanjing, Weather by CustomWeather, © 2014

Note: Actual official high and low records may vary slightly from our data, if they occured in-between our weather recording intervals... More about our weather records

Advertising

Nanjing weather history for previous 24 hours

 ConditionsComfort  
Time TempWeatherWind HumidityBarometerVisibility
1:00 AM
Aug 24
77 °FFog.No wind94%29.71 "Hg2 mi
12:00 AM81 °FFog.3 mph84%29.74 "Hg2 mi
11:00 PM
Aug 23
79 °FFog.8 mph89%29.74 "Hg3 mi
10:00 PM79 °FClear.6 mph89%29.74 "Hg4 mi
9:00 PM81 °FClear.6 mph79%29.74 "Hg5 mi
8:00 PM82 °FClear.6 mph74%29.71 "Hg4 mi
7:00 PM84 °FFog.1 mph84%29.71 "Hg2 mi
6:00 PM86 °FFog.3 mph79%29.68 "Hg3 mi
5:00 PM88 °FClear.6 mph75%29.68 "Hg4 mi
4:00 PM90 °FScattered clouds.6 mph67%29.68 "Hg4 mi
3:00 PM91 °FPassing clouds.6 mph63%29.68 "Hg5 mi
2:00 PM91 °FPassing clouds.6 mph63%29.68 "HgN/A
1:00 PM91 °FScattered clouds.3 mph63%29.71 "HgN/A
12:00 PM91 °FScattered clouds.3 mph67%29.74 "Hg4 mi
11:00 AM88 °FScattered clouds.6 mph66%29.77 "Hg4 mi
10:00 AM86 °FFog.3 mph75%29.77 "Hg2 mi
9:00 AM86 °FFog.3 mph79%29.77 "Hg1 mi
8:00 AM82 °FFog.3 mph89%29.77 "Hg1 mi
7:00 AM79 °FFog.3 mph94%29.77 "Hg1 mi
6:00 AM77 °FFog.1 mph100%29.77 "Hg1 mi
5:00 AM77 °FFog.No wind100%29.74 "Hg1 mi
4:00 AM79 °FFog.3 mph94%29.74 "Hg2 mi
3:00 AM79 °FFog.3 mph89%29.74 "Hg3 mi
2:00 AM77 °FClear.1 mph94%29.77 "Hg4 mi
Weather by CustomWeather, © 2014

See weather overviewHow to use our weather pages